Wind_Speed
37 38 38 38 39 39 39 38 38 37 37 38 39 40 41 41 42 42 43 43 43 44 44 44 45 46 46 47 47 48 48 47 45 44 44 44 43 42
40 39 38 39 40 40 40 39 38 38 37 38 40 40 41 41 42 42 42 42 43 43 43 44 45 46 47 48 48 48 47 45 44 44 43 42 42 41
40 39 39 40 40 40 40 39 39 38 38 38 39 40 41 41 41 41 41 41 42 43 44 45 46 47 48 48 47 46 45 44 43 42 41 41 40 40
40 40 40 40 40 39 39 39 39 38 39 38 39 39 40 41 41 40 40 41 42 43 44 45 47 48 48 47 45 44 43 42 41 41 40 39 39 39
41 41 40 41 40 39 39 39 39 39 39 40 39 39 40 40 40 40 40 41 42 42 44 45 46 46 46 44 43 42 42 41 41 40 38 38 38 37
40 40 40 40 40 39 39 39 40 40 40 39 39 39 39 39 39 39 40 40 41 42 43 44 45 44 43 41 41 41 41 40 39 38 37 36 36 35
38 38 38 39 39 39 39 39 40 39 39 38 38 38 38 38 39 39 40 40 41 41 42 42 42 42 41 40 40 40 40 39 37 36 35 34 34 34
37 37 37 38 38 38 38 39 39 38 38 39 39 38 38 39 39 39 40 40 40 41 41 40 41 40 39 38 38 38 38 37 35 34 33 33 33 32
35 35 36 37 37 36 37 37 37 37 37 37 37 37 37 38 38 39 40 41 40 40 39 39 39 39 37 36 36 36 36 35 33 32 32 31 30 29
36 36 36 37 37 36 34 34 34 35 35 35 36 37 37 37 38 39 39 39 38 39 39 38 37 36 34 34 34 34 33 32 31 30 29 28 27 26
36 36 36 36 35 34 34 34 34 35 35 35 35 36 36 37 38 38 37 37 36 36 36 36 34 32 31 32 31 31 31 30 29 28 27 26 26 25
35 35 35 34 33 33 33 34 34 34 34 34 34 34 35 36 36 36 36 35 34 34 34 33 31 31 30 29 29 28 28 28 27 27 27 26 25 24
34 34 34 33 33 32 32 32 32 33 32 32 32 33 34 34 34 34 33 33 33 32 32 31 31 30 28 26 26 26 26 26 26 26 26 25 23 22
34 34 34 34 34 33 33 33 33 32 32 31 31 31 32 32 32 31 31 31 31 31 30 29 29 27 26 25 24 24 24 25 25 24 24 24 21 20
34 34 34 33 33 33 33 32 31 30 30 30 30 30 31 30 29 28 28 28 28 28 28 27 26 24 24 23 23 23 23 23 23 23 23 22 20 19
34 34 34 33 33 33 32 31 30 30 29 29 28 28 29 29 28 27 26 26 25 25 25 24 23 22 22 21 22 22 22 21 21 21 22 21 19 18
33 33 33 32 31 30 29 29 29 28 28 27 27 27 27 27 26 25 24 24 23 23 22 21 20 20 20 20 20 20 20 19 20 20 20 20 18 16
32 32 31 30 29 29 28 28 28 28 27 26 26 26 25 24 23 23 22 22 21 21 20 20 19 19 19 19 19 18 18 17 18 19 19 18 16 15
28 28 29 29 28 27 27 27 27 26 26 26 25 24 23 22 21 21 21 21 20 20 19 19 19 19 19 18 17 17 16 16 17 17 17 16 14 14
26 26 26 26 25 25 25 25 25 25 25 25 24 23 21 21 21 21 20 20 19 19 18 18 18 18 17 17 16 16 16 15 16 17 16 15 14 13
24 24 24 23 23 23 24 24 23 23 22 22 21 20 20 19 19 19 18 18 18 17 17 16 16 17 16 16 15 15 15 15 16 16 14 13 13 13
21 22 22 22 22 22 22 22 22 22 21 20 19 19 18 18 18 17 17 17 16 16 15 15 15 16 15 14 14 13 14 15 15 15 14 12 12 11
21 21 22 22 22 21 22 22 21 21 20 19 19 18 18 17 17 16 16 16 15 14 14 14 15 14 14 13 13 12 13 13 13 14 14 12 12 12
Wind_Direction
265 268 271 274 278 278 278 281 284 285 285 286 289 290 292 294 295 297 298 300 300 302 302 302 303 304 306 306 306 307 306 306 305 305 304 304 304 303
266 269 272 276 276 278 279 280 282 285 286 288 290 291 293 294 295 297 298 300 301 302 302 303 304 305 306 307 308 307 306 306 305 305 304 304 303 303
265 268 272 275 276 277 278 279 281 283 286 288 290 292 293 295 297 298 299 301 302 303 303 304 305 307 308 308 308 307 307 307 306 306 306 305 304 304
265 269 272 273 274 275 277 279 281 283 286 288 291 293 293 295 297 298 300 301 302 303 304 305 306 308 309 308 308 308 309 308 308 308 307 306 304 304
266 269 270 272 272 274 277 278 281 283 286 289 292 294 294 296 297 299 301 302 303 304 305 306 307 309 310 309 308 309 309 309 309 308 307 306 306 305
266 268 270 271 272 273 275 279 281 283 286 290 293 295 295 297 298 299 301 302 303 304 306 307 308 310 310 309 309 310 310 310 310 309 308 307 307 307
265 267 269 271 272 274 276 278 282 285 288 290 293 294 295 296 298 299 300 302 302 303 305 307 309 310 311 309 310 311 312 311 311 311 310 310 310 309
263 265 267 270 273 275 277 279 282 285 288 290 292 293 295 297 298 299 301 302 302 303 305 307 308 310 311 310 311 312 313 313 312 312 313 313 313 313
262 265 269 272 274 275 278 280 283 286 289 290 291 293 295 296 298 300 301 303 303 304 305 308 309 311 310 311 313 314 315 315 315 315 315 315 316 316
262 265 269 272 273 275 277 280 282 285 287 289 291 293 295 297 299 301 302 303 304 304 306 308 309 310 311 312 314 316 317 317 316 317 318 318 318 318
261 265 268 271 272 274 276 279 281 283 286 288 289 292 294 297 299 300 301 303 305 306 306 308 309 310 311 314 314 316 318 318 319 320 320 320 319 319
263 265 268 270 271 273 275 277 280 282 284 286 288 291 294 297 300 301 301 303 305 306 307 308 309 310 312 313 314 317 319 321 322 322 321 321 321 321
263 265 268 269 271 273 275 278 280 282 285 287 288 290 293 297 299 300 301 303 305 307 307 308 310 311 312 314 317 319 320 323 324 324 323 323 323 323
261 264 267 269 271 274 276 278 281 282 284 287 288 290 294 297 298 299 301 303 305 306 306 308 310 311 313 316 318 320 322 324 326 327 327 326 325 326
261 263 267 269 271 273 275 278 280 281 284 286 288 291 295 298 299 300 301 303 305 306 307 308 310 311 314 316 318 321 324 326 328 329 330 329 328 329
261 263 266 269 271 272 274 276 279 280 284 286 290 294 296 298 299 300 302 303 304 306 309 310 311 312 315 317 320 323 326 328 330 332 333 332 331 332
262 264 266 268 268 268 271 275 278 280 283 286 290 294 296 298 298 299 301 303 304 307 310 311 313 316 318 320 322 324 327 329 331 333 335 336 335 336
263 263 265 266 265 266 269 273 276 279 282 284 288 291 295 296 296 298 300 303 305 307 310 311 314 318 319 321 324 326 327 329 331 336 339 339 339 339
263 264 265 266 265 267 270 272 274 277 280 283 286 289 291 293 295 297 300 303 304 305 307 310 313 316 319 322 325 326 328 329 332 336 339 339 339 341
262 263 263 263 265 267 270 271 273 276 279 281 283 286 288 289 292 295 298 301 302 304 306 309 312 315 319 322 325 325 327 330 333 337 339 338 340 342
260 260 259 260 262 266 269 271 273 276 278 280 282 284 285 287 289 292 295 298 300 303 306 308 311 314 318 320 323 325 327 329 332 337 340 339 338 340
258 258 256 257 261 265 269 271 271 273 275 277 280 283 285 286 287 289 292 295 298 301 305 309 312 315 317 319 321 323 326 329 333 337 339 338 337 339
257 257 257 258 261 263 266 267 268 269 271 274 276 281 285 284 286 288 289 292 296 300 305 308 311 314 317 318 319 321 325 328 331 336 337 337 340 344
Height
5713 5714 5714 5715 5715 5715 5714 5713 5713 5712 5712 5709 5706 5703 5700 5697 5694 5691 5687 5683 5678 5674 5670 5665 5660 5655 5649 5644 5638 5632 5626 5621 5615 5610 5605 5600 5594 5590
5704 5704 5705 5705 5705 5705 5705 5704 5703 5703 5702 5700 5697 5694 5691 5688 5685 5681 5677 5673 5669 5664 5659 5655 5650 5644 5639 5633 5627 5621 5615 5609 5604 5598 5593 5588 5583 5579
5694 5695 5695 5696 5696 5696 5696 5695 5694 5693 5692 5691 5687 5684 5681 5678 5675 5671 5667 5663 5659 5654 5649 5644 5639 5634 5628 5621 5615 5609 5603 5598 5593 5588 5582 5577 5572 5568
5684 5685 5686 5686 5687 5687 5686 5686 5685 5683 5683 5682 5679 5675 5672 5668 5665 5662 5658 5654 5650 5645 5639 5634 5629 5623 5617 5610 5604 5598 5593 5588 5583 5577 5572 5567 5562 5558
5674 5675 5676 5677 5677 5677 5677 5676 5675 5674 5673 5671 5669 5666 5663 5659 5656 5652 5649 5645 5640 5635 5630 5625 5619 5612 5606 5600 5594 5588 5583 5578 5573 5568 5562 5557 5552 5548
5665 5666 5667 5667 5667 5667 5667 5667 5666 5665 5663 5661 5659 5657 5653 5649 5646 5643 5640 5636 5631 5626 5620 5615 5609 5602 5596 5590 5585 5579 5574 5568 5563 5558 5553 5548 5543 5539
5655 5656 5657 5658 5658 5658 5658 5657 5656 5655 5654 5652 5650 5647 5644 5640 5637 5634 5631 5627 5622 5616 5612 5606 5600 5594 5587 5581 5575 5570 5564 5559 5554 5549 5544 5539 5534 5530
5646 5647 5648 5649 5649 5648 5648 5647 5647 5646 5644 5643 5641 5638 5635 5631 5628 5624 5621 5618 5614 5609 5603 5598 5591 5586 5579 5573 5567 5561 5556 5551 5546 5541 5536 5531 5526 5522
5637 5638 5639 5640 5640 5639 5639 5638 5637 5636 5635 5633 5631 5628 5625 5622 5619 5616 5611 5607 5603 5598 5593 5589 5583 5577 5571 5565 5559 5554 5548 5543 5538 5533 5528 5524 5519 5515
5628 5630 5631 5631 5631 5631 5630 5630 5628 5627 5625 5624 5622 5619 5616 5613 5609 5606 5602 5598 5594 5588 5583 5580 5575 5570 5564 5558 5553 5547 5542 5537 5532 5527 5522 5518 5513 5509
5619 5620 5621 5622 5622 5622 5622 5622 5620 5618 5616 5614 5612 5609 5606 5603 5599 5596 5593 5589 5586 5581 5575 5571 5567 5562 5558 5552 5547 5541 5536 5531 5526 5521 5517 5512 5508 5504
5611 5611 5612 5613 5613 5612 5613 5612 5611 5609 5608 5606 5604 5601 5598 5594 5590 5587 5583 5580 5576 5573 5568 5564 5559 5555 5552 5547 5541 5536 5531 5526 5521 5516 5512 5507 5503 5499
5601 5602 5603 5603 5604 5603 5603 5603 5602 5600 5599 5597 5595 5593 5590 5586 5583 5579 5575 5571 5568 5564 5560 5556 5552 5548 5544 5541 5536 5532 5527 5522 5517 5512 5507 5503 5499 5495
5593 5594 5594 5595 5595 5594 5594 5593 5593 5591 5590 5588 5586 5584 5582 5579 5575 5571 5568 5564 5560 5556 5553 5549 5546 5542 5538 5535 5531 5528 5523 5518 5513 5509 5504 5500 5496 5492
5583 5585 5585 5586 5586 5586 5585 5584 5584 5583 5581 5580 5578 5576 5573 5570 5567 5564 5561 5557 5554 5550 5547 5543 5540 5537 5533 5530 5527 5523 5519 5515 5510 5506 5501 5497 5493 5490
5574 5575 5576 5576 5577 5577 5576 5576 5575 5574 5573 5572 5570 5568 5566 5563 5560 5558 5555 5552 5549 5545 5542 5538 5535 5532 5529 5526 5522 5519 5515 5511 5507 5503 5498 5494 5490 5487
5565 5566 5567 5568 5568 5568 5569 5568 5568 5567 5566 5565 5563 5561 5559 5556 5554 5551 5549 5546 5544 5541 5538 5535 5531 5528 5525 5522 5519 5515 5512 5508 5504 5500 5497 5492 5488 5485
5556 5557 5558 5559 5560 5560 5561 5561 5560 5559 5559 5557 5556 5554 5552 5550 5548 5546 5543 5541 5539 5536 5533 5531 5528 5526 5523 5519 5516 5512 5509 5506 5502 5499 5495 5491 5487 5484
5547 5548 5549 5550 5551 5552 5552 5553 5552 5552 5551 5550 5549 5548 5546 5544 5542 5541 5538 5536 5534 5532 5529 5527 5524 5522 5520 5517 5513 5509 5507 5504 5501 5497 5493 5490 5487 5484
5539 5540 5541 5542 5543 5544 5545 5545 5545 5545 5544 5543 5542 5541 5540 5539 5537 5535 5533 5531 5529 5527 5525 5523 5521 5518 5516 5514 5510 5507 5504 5502 5499 5496 5492 5489 5486 5483
5531 5532 5533 5534 5535 5536 5537 5538 5538 5538 5537 5537 5536 5535 5534 5533 5532 5530 5529 5527 5525 5523 5522 5520 5517 5515 5513 5511 5508 5505 5502 5500 5497 5494 5491 5488 5485 5483
5524 5525 5526 5527 5528 5529 5530 5531 5531 5531 5531 5531 5530 5530 5529 5528 5527 5525 5524 5523 5521 5520 5518 5516 5514 5512 5510 5508 5506 5504 5501 5498 5495 5492 5489 5487 5485 5482
5517 5518 5519 5521 5522 5523 5524 5524 5525 5525 5525 5525 5525 5524 5524 5523 5522 5521 5519 5518 5517 5516 5515 5513 5512 5510 5508 5506 5504 5502 5499 5497 5494 5491 5488 5485 5483 5480